OpenBCM V1.08-5-g2f4a (Linux)

Packet Radio Mailbox

IZ3LSV

[San Dona' di P. JN]

 Login: GUEST





  
I0OJJ  > KEPS     21.11.25 01:26l 308 Lines 14709 Bytes #104 (0) @ AMSAT
BID : ORB25325.1
Read: GUEST
Subj: 2Line Orbital Elements 25325.AMSAT
Path: IZ3LSV<IK6IHL<IK7NXU<HB9ON<DK0WUE<PI8ZTM<CX2SA<EA2RCF<I0OJJ
Sent: 251121/0021z @:I0OJJ.ITA.EU [Rome] obcm1.08-11-2-gbfe9
From: I0OJJ @ I0OJJ.ITA.EU (Gustavo)
To:   KEPS @ AMSAT
X-Info: This message was generated automatically


QST de W1STR

AMSAT Orbital Elements for Amateur Satellites in TLE Format
From Orbital Analysis Office
New England Sci-Tech STEM Education Center
Natick MA November 21, 2025
To all radio amateurs


These element sets describe the orbits of various satellites 
in use by the amateur radio community. For details see:
www.amsat.org/keplerian-elements-formats/

A daily update of element sets is available at:
www.amsat.org/tle/daily-bulletin.txt
or without bulletin text:
www.amsat.org/tle/dailytle.txt


AO-07
1 07530U 74089B   25324.49221602 -.00000041  00000-0  32834-4 0  9995
2 07530 101.9971 330.5254 0012246 168.4898 346.3501 12.53693541334366
UO-11
1 14781U 84021B   25324.49900891  .00001633  00000-0  17487-3 0  9995
2 14781  97.7779 287.8787 0008428 144.5778 215.6001 14.90033245226044
AO-27
1 22825U 93061C   25324.62190806  .00000153  00000-0  75407-4 0  9992
2 22825  98.7177  26.8336 0008258 359.9708   0.1473 14.30865143677170
FO-29
1 24278U 96046B   25324.59225308  .00000003  00000-0  42307-4 0  9991
2 24278  98.5477 196.6974 0348855 277.5698  78.5952 13.53261016444954
GO-32
1 25397U 98043D   25324.43886272  .00000103  00000-0  64718-4 0  9990
2 25397  98.9900 307.1384 0002327  93.5982 266.5462 14.24368131421617
ISS
1 25544U 98067A   25324.54475791  .00013659  00000-0  25630-3 0  9991
2 25544  51.6324 252.3307 0003988 148.8281 211.2944 15.48924225539412
NO-44
1 26931U 01043C   25324.45380333  .00000225  00000-0  11504-3 0  9997
2 26931  67.0517  64.1094 0007294 271.1488  88.8778 14.31837072260567
SO-50
1 27607U 02058C   25324.54193088  .00001735  00000-0  22589-3 0  9996
2 27607  64.5550  54.1985 0070949 300.7077  58.7051 14.82265973233522
CO-55
1 27844U 03031E   25324.45926584  .00000428  00000-0  20498-3 0  9991
2 27844  98.6765 330.6491 0010658  73.9653 286.2699 14.24152351161960
CO-57
1 27848U 03031J   25324.48527829  .00000348  00000-0  17228-3 0  9995
2 27848  98.6793 330.5546 0010630  89.9675 270.2722 14.23464517161684
RS-22
1 27939U 03042A   25324.84449911  .00001537  00000-0  24807-3 0  9995
2 27939  98.3366 138.4640 0010812 204.4031 263.3641 14.72878781184875
CO-58
1 28895U 05043F   25324.34706256  .00002043  00000-0  33500-3 0  9996
2 28895  98.2713 111.0501 0014932 144.8724 215.3470 14.71770724 71024
CO-65
1 32785U 08021C   25324.79129016  .00006405  00000-0  43547-3 0  9998
2 32785  97.8065 297.5781 0010492  28.2434 331.9360 15.06657620953785
CO-66
1 32791U 08021J   25324.45870860  .00016490  00000-0  67852-3 0  9998
2 32791  97.7422 308.8576 0003002   8.6863 351.4425 15.24218773955405
RS-30
1 32953U 08025A   25324.82042418  .00000022  00000-0  87338-4 0  9999
2 32953  82.4996 125.0566 0019700  48.3186 311.9576 12.43171093793804
SRMSAT
1 37841U 11058D   25324.48808852  .00000459  00000-0  10570-3 0  9991
2 37841  19.9715 242.6293 0011841  68.6006  91.1165 14.11500905728293
ZACUBE-1
1 39417U 13066B   25324.82900050  .00005796  00000-0  47818-3 0  9998
2 39417  97.8016 281.3479 0040717 219.9593 139.8631 14.98758612649492
Delfi-N3xt
1 39428U 13066N   25324.73748832  .00006587  00000-0  62663-3 0  9992
2 39428  97.8334 240.7795 0079556 177.4132 182.7514 14.91377607643515
GOMX-1
1 39430U 13066Q   25324.82539574  .00002002  00000-0  31098-3 0  9992
2 39430  97.6610 173.3214 0131508  26.8880 333.9062 14.68440711639326
LO-74
1 39440U 13066AA  25324.40328069  .00006176  00000-0  59957-3 0  9992
2 39440  97.8681 268.1131 0060349   0.9404 359.1917 14.91620788645840
AO-73
1 39444U 13066AE  25324.45850308  .00008241  00000-0  56846-3 0  9996
2 39444  97.8025 287.4763 0038703 190.2767 169.7672 15.05454678648211
DTUSAT-2
1 40030U 14033W   25324.42566961  .00008308  00000-0  49813-3 0  9990
2 40030  98.0738 304.6477 0006965 216.6181 143.4572 15.11227348621117
EO-80
1 40032U 14033Y   25324.43738418  .00008919  00000-0  53328-3 0  9995
2 40032  98.0615 304.0851 0008448 152.9509 207.2161 15.11289877621092
LILACSAT-2
1 40908U 15049K   25324.83435127  .00015557  00000-0  34472-3 0  9995
2 40908  97.4934 349.5553 0006383 295.5587  64.5001 15.43838487563522
IO-86
1 40931U 15052B   25151.18580175  .00001241  00000-0  78118-4 0  9996
2 40931   6.0006  24.0987 0012733 338.8432  21.1169 14.78805930523159
Horyu-4
1 41340U 16012D   25324.45671873  .00044532  00000-0  81525-3 0  9991
2 41340  30.9932 102.6612 0005669  11.6620 348.4159 15.48053333538094
Lapan A3
1 41603U 16040E   25324.87089045  .00004304  00000-0  14449-3 0  9998
2 41603  97.1422 323.2276 0012205  49.2410 310.9889 15.31309505522915
CAS-2T
1 41847U 16066G   25324.65957986  .00001172  00000-0  17327-3 0  9998
2 41847  98.4060  37.6152 0344837  42.0159 320.6937 14.44059963474692
TechnoSat
1 42829U 17042E   25324.42977448  .00003042  00000-0  22839-3 0  9996
2 42829  97.4032 125.6064 0020218  86.3356 274.0182 15.03167006455322
AO-91
1 43017U 17073E   25324.35700200  .00012166  00000-0  58230-3 0  9993
2 43017  97.4967 191.0694 0162092 327.9557  31.1893 15.08172847433869
S-Net D
1 43186U 18014G   25324.28484454  .00006713  00000-0  37341-3 0  9999
2 43186  97.5486 225.5602 0009731  31.3530 328.8279 15.13956073427125
S-Net B
1 43187U 18014H   25324.68911508  .00006486  00000-0  36108-3 0  9996
2 43187  97.5491 225.9404 0010293  25.1453 335.0278 15.13936447427184
S-Net A
1 43188U 18014J   25324.68120730  .00006789  00000-0  37746-3 0  9991
2 43188  97.5503 226.1055 0010167  25.9798 334.1942 15.13967273427183
S-Net C
1 43189U 18014K   25324.69200933  .00006383  00000-0  35536-3 0  9992
2 43189  97.5515 226.1579 0011444  17.9506 342.2127 15.13930894425738
Ten-Koh
1 43677U 18084G   25324.72304900  .00003748  00000-0  29382-3 0  9998
2 43677  98.0695 143.4608 0009234  86.5086 273.7193 15.01600823384860
PO-101
1 43678U 18084H   25324.82919212  .00002154  00000-0  18173-3 0  9994
2 43678  98.1037 147.4128 0007377  99.7926 260.4129 14.99281399384982
QO-100
1 43700U 18090A   25324.66541219  .00000166  00000-0  00000+0 0  9994
2 43700   0.0160 348.2060 0002459 293.7872  43.2913  1.00272903 25580
MinXSS-2
1 43758U 18099A   25324.63786337  .00022161  00000-0  69508-3 0  9996
2 43758  97.4831  31.7264 0009003 298.1619  61.8713 15.33026269382031
AO-95
1 43770U 18099N   25324.62955715  .00011209  00000-0  50526-3 0  9998
2 43770  97.4712  21.0857 0009852   9.9702 350.1727 15.21161355381453
SNUSat 2
1 43782U 18099AA  25324.11426632  .00008625  00000-0  43043-3 0  9990
2 43782  97.4390  15.9151 0010087 311.6670  48.3699 15.17703909381272
SnugLite
1 43784U 18099AC  25324.62224780  .00011702  00000-0  52215-3 0  9999
2 43784  97.4201  16.3855 0002148 326.2673  33.8426 15.21537828381542
ITASat 1
1 43786U 18099AE  25324.38556692  .00006904  00000-0  36621-3 0  9995
2 43786  97.4358  15.1682 0013585   6.5283 353.6124 15.15595370381248
EAGLET 1
1 43790U 18099AJ  25324.58554368  .00004133  00000-0  25229-3 0  9994
2 43790  97.4557  14.6947 0011282 354.1237   5.9859 15.10805703380818
ESEO
1 43792U 18099AL  25324.58479992  .00001827  00000-0  13861-3 0  9991
2 43792  97.4283   5.6718 0011077 332.9717  27.0931 15.03366777380452
JO-97
1 43803U 18099AX  25324.13213513  .00015247  00000-0  59742-3 0  9999
2 43803  97.4462  22.0363 0005385 296.7456  63.3230 15.25861087381662
Suomi 100
1 43804U 18099AY  25324.11800123  .00012160  00000-0  52655-3 0  9994
2 43804  97.4522  20.7660 0009972 300.6855  59.3398 15.22511975381541
ISAT
1 43879U 18111D   25324.71940844  .00034845  00000-0  88136-3 0  9999
2 43879  97.5907 243.5761 0006904   4.7243 355.4066 15.39674138378854
UWE-4
1 43880U 18111E   25324.71054625  .00023928  00000-0  75132-3 0  9996
2 43880  97.5849 240.6515 0010726   7.4601 352.6798 15.32960869378708
Sparrow
1 43881U 18111F   25324.60478028  .00038772  00000-0  91658-3 0  9996
2 43881  97.6085 247.0822 0007630  40.1333 320.0476 15.41698803378955
Prox-1
1 44339U 19036A   25324.59698814  .00014521  00000-0  16550-2 0  9990
2 44339  23.9970  61.3225 0007393 140.6724 219.4312 14.84378693342374
Taurus 1
1 44530U 19059C   25324.83677822  .00008205  00000-0  14183-2 0  9993
2 44530  98.6223 112.4932 0008968 241.7989 118.2309 14.68639367328023
Duchifat 3
1 44854U 19089C   25324.52758837  .00437977  00000-0  17384-2 0  9995
2 44854  36.9312  15.1644 0008652 123.7222 236.4372 15.84577872328590
TO-108
1 44881U 19093C   25324.81727611  .00001147  00000-0  13705-3 0  9998
2 44881  97.7784  36.9373 0014833  55.8348 304.4271 14.86031183320463
FloripaSat 1
1 44885U 19093G   25324.84548600  .00006627  00000-0  52502-3 0  9990
2 44885  97.8069  52.9400 0012070  43.1297 317.0870 15.00852097321364
RS-44
1 44909U 19096E   25324.49798620  .00000004  00000-0 -21266-4 0  9998
2 44909  82.5188 118.3892 0216515 272.3023  85.3304 12.79745503275652
SALSAT
1 46495U 20068K   25324.76225272  .00008918  00000-0  35156-3 0  9992
2 46495  97.8766 310.8602 0009362 321.4612  38.5955 15.25798568283534
CSS (TIANHE-1)
1 48274U 21035A   25324.73796323  .00019307  00000-0  24117-3 0  9990
2 48274  41.4652 150.1883 0007499 205.0501 154.9974 15.59356911260593
TUBIN
1 48900U 21059X   25324.85472519  .00270733  29669-4  82377-3 0  9993
2 48900  97.6636 150.1119 0002023 330.4697  29.6462 15.92017691245828
CUTE
1 49263U 21088D   25324.29089478  .00026907  00000-0  37594-3 0  9991
2 49263  97.4375  46.1650 0005289   5.1211 355.0097 15.56818985229803
TeikyoSat 4
1 49396U 21102B   25324.58051595  .00002863  00000-0  18728-3 0  9999
2 49396  97.3925 357.0117 0010856 294.1138  65.8955 15.08497410221260
Z-Sat
1 49399U 21102E   25324.86746034  .00004963  00000-0  25999-3 0  9993
2 49399  97.3609   1.4704 0015752 252.1549 107.7966 15.16138772221859
